Regional Weather Roundup
Issued by NWS Columbia, SC

Home | Current Version | Previous Version | Text Only | Print | Product List | Glossary On
Versions: 1 2 3 4 5 6 7 8 9 10 11 12 13 14 15 16 17 18 19 20 21 22 23 24 25 26 27 28 29 30 31 32 33 34 35 36 37 38 39 40 41 42 43 44 45 46 47 48 49 50
000
ASUS42 KCAE 261010
RWRCAE
REGIONAL WEATHER ROUNDUP
NATIONAL WEATHER SERVICE COLUMBIA SC
600 AM EDT TUE MAY 26 2015

NOTE: "FAIR" INDICATES FEW OR NO CLOUDS BELOW 12,000 FEET WITH NO
SIGNIFICANT WEATHER AND/OR OBSTRUCTIONS TO VISIBILITY.

NOT ALL STATIONS ARE QUALITY CONTROLLED BY THE NATIONAL
WEATHER SERVICE. USE DATA WITH CAUTION...ESPECIALLY
DEWPOINT OBSERVATIONS.

SCZ001>056-GAZ040-063>065-077-261100-
...UPSTATE SOUTH CAROLINA...

CITY           SKY/WX    TMP DP  RH WIND       PRES   REMARKS
ANDERSON       PTCLDY    69  66  90 S3        30.25R
LIBERTY        CLOUDY    70  67  88 S5        30.25S
SPARTANBURG    PTCLDY    72  72 100 SE3       30.26R
CLEMSON        MOCLDY    72  65  78 CALM      30.26R
GREENVILLE     CLOUDY    70  66  87 S6        30.27R
GREENWOOD      CLOUDY    69  67  93 SE5       30.27R
GREER          CLOUDY    70  67  90 S5        30.25R
ROCK HILL      MOCLDY    66  64  93 CALM      30.28R
CHESTER        CLOUDY    68  64  88 CALM      30.28R
LAURENS        CLOUDY    68  68 100 CALM      30.26R


...CENTRAL SOUTH CAROLINA...

CITY           SKY/WX    TMP DP  RH WIND       PRES   REMARKS
COLUMBIA APT   PTCLDY    67  62  84 CALM      30.24S
COLUMBIA OWENS MOCLDY    67  64  90 CALM      30.26R
DARLINGTON     PTCLDY    63  57  82 N3        30.27R
FLORENCE       CLEAR     64  63  96 CALM      30.25R
MCENTIRE ANGB  CLOUDY    64  63  97 CALM      30.25R
ORANGEBURG     MOCLDY    65  63  93 CALM      30.24S FOG
SUMTER SHAW    MOCLDY    66  64  94 NE3       30.24R
NEWBERRY       PTSUNNY   66  66 100 CALM      30.29R
AIKEN          CLOUDY    68  64  88 S3        30.29R
BARNWELL       FOG       70  70 100 CALM      30.25R VSB 1/2
MANNING        PTSUNNY   63  37  39 CALM      30.25R HAZE
CAMDEN         FAIR      64  63  94 CALM      30.27R
LANCASTER      MOSUNNY   64  64 100 CALM      30.27S
WINNSBORO      SUNNY     64  64 100 CALM      30.26S


...EASTERN AND COASTAL SOUTH CAROLINA...

CITY           SKY/WX    TMP DP  RH WIND       PRES   REMARKS
N MYRTLE BCH   MOCLDY    75  68  78 SE6       30.25R
CONWAY         FAIR      64  64 100 CALM      30.25R
MARION         FAIR      63  63 100 CALM      30.25S FOG
HARTSVILLE     FAIR      63  63 100 CALM      30.26R
FLORENCE       CLEAR     64  63  96 CALM      30.25R
DARLINGTON     PTCLDY    63  57  82 N3        30.27R
CHARLESTON APT PTCLDY    71  69  93 CALM      30.23S
MOUNT PLEASANT LGT RAIN  70  70 100 CALM      30.24R
WALTERBORO     FOG       63  63 100 CALM      30.24S VSB 1/4
BEAUFORT       MOCLDY    72  71  97 CALM      30.22S


...EASTERN GEORGIA...

CITY           SKY/WX    TMP DP  RH WIND       PRES   REMARKS
AUGUSTA BUSH F CLOUDY    69  68  96 E3        30.24R
AUGUSTA DANIEL CLOUDY    72  68  87 SE5       30.25R
THOMSON        CLOUDY    73  71  95 SE3       30.28R
WASHINGTON     FAIR      72  72 100 SE3       30.24S
CLAXTON        FOG       68  68 100 CALM      30.22R VSB 1/2
SYLVANIA       CLOUDY    70  70 100 CALM      30.24R FOG
STATESBORO     FOG       69  32  25 CALM      30.23R VSB 3/4
SAVANNAH       MOCLDY    70  69  97 CALM      30.22R


...SOUTHERN NORTH CAROLINA...

CITY           SKY/WX    TMP DP  RH WIND       PRES   REMARKS
CHARLOTTE      CLOUDY    68  64  87 S5        30.28R
MONROE         CLEAR     64  61  90 CALM      30.27R FOG
WADESBORO      MOSUNNY   63  61  93 CALM      30.27R
ROCKINGHAM     MOSUNNY   63  62  97 CALM      30.28R
RUTHERFORDTON  CLOUDY    67  65  94 E6        30.27S
ASHEVILLE      LGT RAIN  66  63  90 SE6       30.30R

$$



USA.gov is the U.S. government's official web portal to all federal, state and local government web resources and services.